DW2537 Weather Reports


Display with metric or nautical units.
time (UTC)temp
F
wind
direction
speed
MPH
gust
MPH
rain 1hr
in
rain 24hr
in
rain mn
in
humidity
%
barometer
mb
20260508214538 67 0 0.0 2.0 0.00 0.00 0.00 40 1011.3
20260508214015 67 209 0.0 8.0 0.00 0.00 0.00 35 1011.2
20260508213518 67 172 0.0 8.0 0.00 0.00 0.00 36 1011.2
20260508213038 67 190 1.0 8.0 0.00 0.00 0.00 38 1011.2
20260508212522 67 303 1.0 4.0 0.00 0.00 0.00 38 1011.2
20260508212018 67 0 0.0 8.0 0.00 0.00 0.00 35 1011.1
20260508211534 67 0 0.0 8.0 0.00 0.00 0.00 38 1011.2
20260508211018 67 163 1.0 7.0 0.00 0.00 0.00 38 1011.2
20260508210518 67 165 1.0 5.0 0.00 0.00 0.00 35 1011.2
20260508210033 67 218 1.0 5.0 0.00 0.00 0.00 36 1011.2
20260508205517 68 352 1.0 7.0 0.00 0.00 0.00 37 1011.2
20260508205016 68 225 2.0 8.0 0.00 0.00 0.00 34 1011.2
20260508204536 68 0 0.0 8.0 0.00 0.00 0.00 37 1011.2
20260508204015 68 148 1.0 8.0 0.00 0.00 0.00 37 1011.2
20260508203515 68 148 0.0 4.0 0.00 0.00 0.00 36 1011.2
20260508203038 68 190 1.0 4.0 0.00 0.00 0.00 35 1011.4
20260508202516 68 177 0.0 9.0 0.00 0.00 0.00 37 1011.5
20260508202015 68 198 2.0 9.0 0.00 0.00 0.00 31 1011.5
20260508201540 69 299 2.0 9.0 0.00 0.00 0.00 31 1011.7
20260508201021 69 143 1.0 8.0 0.00 0.00 0.00 33 1011.6
20260508200518 69 215 3.0 8.0 0.00 0.00 0.00 34 1011.6
20260508200035 68 0 1.0 6.0 0.00 0.00 0.00 35 1011.6
20260508195518 68 121 1.0 9.0 0.00 0.00 0.00 37 1011.7
20260508195015 68 111 2.0 9.0 0.00 0.00 0.00 31 1011.7
20260508194602 69 177 1.0 8.0 0.00 0.00 0.00 31 1011.9
20260508194015 69 184 3.0 9.0 0.00 0.00 0.00 30 1011.9
20260508193515 70 200 2.0 9.0 0.00 0.00 0.00 36 1012.1
20260508193040 70 352 1.0 7.0 0.00 0.00 0.00 32 1012.2
20260508192521 71 338 1.0 1.0 0.00 0.00 0.00 32 1012.3
20260508192019 71 65 0.0 1.0 0.00 0.00 0.00 30 1012.4
20260508191539 71 3.0 10.0 0.00 0.00 0.00 30 1012.4
20260508191018 71 68 3.0 10.0 0.00 0.00 0.00 30 1012.5
20260508190518 71 207 3.0 10.0 0.00 0.00 0.00 34 1012.6
20260508190039 71 224 2.0 10.0 0.00 0.00 0.00 30 1012.5
20260508185518 71 150 3.0 14.0 0.00 0.00 0.00 33 1012.6
20260508185018 71 127 4.0 14.0 0.00 0.00 0.00 31 1012.7
20260508184535 71 173 3.0 11.0 0.00 0.00 0.00 33 1012.7
20260508184017 71 339 3.0 12.0 0.00 0.00 0.00 34 1012.7
20260508183515 70 352 4.0 12.0 0.00 0.00 0.00 32 1012.7
20260508183032 70 186 3.0 9.0 0.00 0.00 0.00 37 1012.7
20260508182520 70 160 3.0 6.0 0.00 0.00 0.00 32 1012.8
20260508182020 69 81 2.0 10.0 0.00 0.00 0.00 35 1012.8
20260508181601 68 295 1.0 10.0 0.00 0.00 0.00 38 1012.8
20260508181020 68 30 2.0 8.0 0.00 0.00 0.00 34 1012.9
20260508180519 68 178 2.0 8.0 0.00 0.00 0.00 34 1012.9
20260508180040 68 168 1.0 4.0 0.00 0.00 0.00 38 1012.8
20260508175515 68 299 1.0 9.0 0.00 0.00 0.00 39 1012.9
20260508175018 68 231 1.0 9.0 0.00 0.00 0.00 32 1013.0
20260508174530 70 315 3.0 9.0 0.00 0.00 0.00 32 1013.3
20260508174018 70 54 1.0 9.0 0.00 0.00 0.00 38 1013.3
20260508173518 69 175 3.0 11.0 0.00 0.00 0.00 35 1013.3
20260508173040 69 343 2.0 11.0 0.00 0.00 0.00 36 1013.4
20260508172518 69 304 3.0 11.0 0.00 0.00 0.00 35 1013.3
20260508172020 68 302 2.0 11.0 0.00 0.00 0.00 32 1013.4
20260508171535 68 317 4.0 11.0 0.00 0.00 0.00 32 1013.5
20260508171017 68 46 3.0 11.0 0.00 0.00 0.00 36 1013.2
20260508170515 68 143 3.0 9.0 0.00 0.00 0.00 34 1013.5
20260508170033 68 196 3.0 9.0 0.00 0.00 0.00 35 1013.6
20260508165516 68 55 2.0 8.0 0.00 0.00 0.00 34 1013.5
20260508165018 68 261 2.0 12.0 0.00 0.00 0.00 33 1013.6
20260508164538 67 217 3.0 14.0 0.00 0.00 0.00 39 1013.6
20260508164019 67 218 2.0 14.0 0.00 0.00 0.00 37 1013.7
20260508163518 68 268 1.0 6.0 0.00 0.00 0.00 39 1013.8
20260508163031 67 321 2.0 6.0 0.00 0.00 0.00 41 1013.9
20260508162518 67 112 1.0 6.0 0.00 0.00 0.00 37 1013.9
20260508162017 67 34 2.0 13.0 0.00 0.00 0.00 35 1014.0
20260508161535 66 29 2.0 13.0 0.00 0.00 0.00 43 1014.1
20260508161018 66 242 2.0 9.0 0.00 0.00 0.00 34 1014.1
20260508160518 66 205 1.0 7.0 0.00 0.00 0.00 35 1014.1
20260508160033 66 13 3.0 7.0 0.00 0.00 0.00 35 1014.3
20260508155524 66 185 1.0 8.0 0.00 0.00 0.00 40 1014.3
20260508155019 66 151 3.0 8.0 0.00 0.00 0.00 40 1014.4
20260508154533 65 196 2.0 13.0 0.00 0.00 0.00 38 1014.5
20260508154015 65 258 4.0 13.0 0.00 0.00 0.00 38 1014.5
20260508153516 65 134 2.0 7.0 0.00 0.00 0.00 38 1014.7
20260508153041 65 330 2.0 7.0 0.00 0.00 0.00 36 1014.6
20260508152517 65 129 2.0 9.0 0.00 0.00 0.00 41 1014.8
20260508152018 64 143 1.0 9.0 0.00 0.00 0.00 40 1014.9
20260508151538 64 221 4.0 8.0 0.00 0.00 0.00 38 1015.0
20260508151021 64 205 3.0 8.0 0.00 0.00 0.00 37 1015.0
20260508150518 64 122 2.0 8.0 0.00 0.00 0.00 37 1015.1
20260508150035 64 289 2.0 7.0 0.00 0.00 0.00 42 1015.1
20260508145519 64 181 1.0 11.0 0.00 0.00 0.00 37 1015.1
20260508145019 63 148 3.0 11.0 0.00 0.00 0.00 36 1015.2
20260508144533 63 216 3.0 10.0 0.00 0.00 0.00 38 1015.1
20260508144018 63 207 3.0 10.0 0.00 0.00 0.00 36 1015.2
20260508143517 63 120 1.0 7.0 0.00 0.00 0.00 40 1015.1
20260508143032 63 128 2.0 9.0 0.00 0.00 0.00 39 1015.3
20260508142520 63 252 4.0 9.0 0.00 0.00 0.00 38 1015.2
20260508142016 63 182 1.0 6.0 0.00 0.00 0.00 43 1015.1
20260508141532 62 307 2.0 7.0 0.00 0.00 0.00 42 1015.3
20260508141018 62 157 1.0 7.0 0.00 0.00 0.00 40 1015.2
20260508140518 62 349 1.0 7.0 0.00 0.00 0.00 48 1015.3
20260508140039 61 223 1.0 7.0 0.00 0.00 0.00 47 1015.3
20260508135520 61 230 1.0 7.0 0.00 0.00 0.00 47 1015.2
20260508135020 61 215 2.0 7.0 0.00 0.00 0.00 49 1015.3
20260508134538 60 241 1.0 5.0 0.00 0.00 0.00 48 1015.4
20260508134015 60 360 1.0 5.0 0.00 0.00 0.00 46 1015.4
20260508133519 60 350 2.0 5.0 0.00 0.00 0.00 50 1015.5
20260508133045 59 219 2.0 4.0 0.00 0.00 0.00 47 1015.5
20260508132519 59 186 0.0 4.0 0.00 0.00 0.00 55 1015.5
20260508132021 59 324 0.0 4.0 0.00 0.00 0.00 55 1015.5
20260508131544 58 219 1.0 4.0 0.00 0.00 0.00 55 1015.5
20260508131019 58 132 0.0 3.0 0.00 0.00 0.00 58 1015.6
20260508130518 57 227 0.0 3.0 0.00 0.00 0.00 60 1015.6
20260508130038 57 206 1.0 3.0 0.00 0.00 0.00 57 1015.6
20260508125518 56 218 1.0 3.0 0.00 0.00 0.00 61 1015.6
20260508125019 56 201 0.0 3.0 0.00 0.00 0.00 60 1015.6
20260508124537 55 0 0.0 2.0 0.00 0.00 0.00 63 1015.6
20260508124018 54 179 0.0 2.0 0.00 0.00 0.00 65 1015.6
20260508123518 53 190 0.0 3.0 0.00 0.00 0.00 64 1015.5
20260508123050 53 190 1.0 3.0 0.00 0.00 0.00 65 1015.6
20260508122518 52 167 0.0 3.0 0.00 0.00 0.00 68 1015.5
20260508122017 52 222 1.0 2.0 0.00 0.00 0.00 72 1015.5
20260508121538 51 198 1.0 2.0 0.00 0.00 0.00 72 1015.5
20260508121018 50 196 1.0 2.0 0.00 0.00 0.00 75 1015.4
20260508120517 49 199 0.0 2.0 0.00 0.00 0.00 75 1015.4
20260508120042 48 199 0.0 2.0 0.00 0.00 0.00 86 1015.4
20260508115518 47 199 0.0 2.0 0.00 0.00 0.00 88 1015.3
20260508115018 46 196 0.0 2.0 0.00 0.00 0.00 89 1015.4
20260508114538 45 0 0.0 2.0 0.00 0.00 0.00 92 1015.2
20260508114019 44 0 0.0 1.0 0.00 0.00 0.00 93 1015.2
20260508113517 43 0 0.0 1.0 0.00 0.00 0.00 93 1015.1
20260508113041 42 0 0.0 0.0 0.00 0.00 0.00 94 1015.0
20260508112519 42 0 0.0 2.0 0.00 0.00 0.00 94 1015.0
20260508112018 42 0 0.0 2.0 0.00 0.00 0.00 94 1015.0
20260508111538 41 0 0.0 2.0 0.00 0.00 0.00 94 1014.9
20260508111018 41 0 0.0 2.0 0.00 0.00 0.00 94 1014.7
20260508110515 41 0 0.0 2.0 0.00 0.00 0.00 93 1014.7
20260508110032 40 0 0.0 2.0 0.00 0.00 0.00 93 1014.5
20260508105516 40 261 0.0 2.0 0.00 0.00 0.00 94 1014.6
20260508105018 40 0 0.0 2.0 0.00 0.00 0.00 94 1014.7
20260508104532 40 250 0.0 2.0 0.00 0.00 0.00 93 1014.6
20260508104016 39 0 0.0 2.0 0.00 0.00 0.00 93 1014.6
20260508103515 39 0 0.0 1.0 0.00 0.00 0.00 93 1014.5
20260508103034 39 0 0.0 2.0 0.00 0.00 0.00 93 1014.6
20260508102521 39 0 0.0 2.0 0.00 0.00 0.00 92 1014.4
20260508102018 39 0 0.0 0.0 0.00 0.00 0.00 92 1014.4
20260508101530 40 0 0.0 0.0 0.00 0.00 0.00 92 1014.2
20260508101019 40 0 0.0 0.0 0.00 0.00 0.00 92 1014.1
20260508100518 40 0 0.0 0.0 0.00 0.00 0.00 92 1014.2
20260508100038 40 0 0.0 0.0 0.00 0.00 0.00 92 1014.0
20260508095518 40 0 0.0 0.0 0.00 0.00 0.00 92 1013.9
20260508095018 40 0 0.0 0.0 0.00 0.00 0.00 92 1013.9
20260508094532 41 0 0.0 0.0 0.00 0.00 0.00 92 1013.9
20260508094021 41 0 0.0 0.0 0.00 0.00 0.00 92 1013.9
20260508093516 41 0 0.0 0.0 0.00 0.00 0.00 92 1013.9
20260508093033 41 0 0.0 1.0 0.00 0.00 0.00 92 1013.9
20260508092519 41 0 0.0 1.0 0.00 0.00 0.00 92 1013.9
20260508092020 41 0 0.0 1.0 0.00 0.00 0.00 92 1013.8
20260508091542 41 0 0.0 0.0 0.00 0.00 0.00 92 1013.8
20260508091019 41 0 0.0 0.0 0.00 0.00 0.00 92 1013.8
20260508090519 42 0 0.0 0.0 0.00 0.00 0.00 92 1013.8
20260508090035 42 0 0.0 0.0 0.00 0.00 0.00 92 1013.8
20260508085518 42 0 0.0 0.0 0.00 0.00 0.00 92 1013.6
20260508085019 42 0 0.0 2.0 0.00 0.00 0.00 93 1013.6
20260508084538 42 0 0.0 2.0 0.00 0.00 0.00 93 1013.6
20260508084025 42 0 0.0 2.0 0.00 0.00 0.00 93 1013.6
20260508083518 43 0 0.0 2.0 0.00 0.00 0.00 93 1013.5
20260508083038 43 284 0.0 2.0 0.00 0.00 0.00 93 1013.6
20260508082519 43 0 0.0 2.0 0.00 0.00 0.00 93 1013.5
20260508082021 43 0 0.0 2.0 0.00 0.00 0.00 93 1013.4
20260508081538 43 0 0.0 2.0 0.00 0.00 0.00 93 1013.4
20260508081016 43 0 0.0 2.0 0.00 0.00 0.00 93 1013.4
20260508080518 43 0 0.0 2.0 0.00 0.00 0.00 93 1013.4
20260508080034 44 0 0.0 2.0 0.00 0.00 0.00 93 1013.3
20260508075517 44 0 0.0 2.0 0.00 0.01 0.00 93 1013.2
20260508075016 44 0 0.0 2.0 0.00 0.01 0.00 93 1013.1
20260508074533 44 0 0.0 2.0 0.00 0.01 0.00 93 1013.2
20260508074016 44 0 0.0 2.0 0.00 0.01 0.00 93 1013.1
20260508073516 44 0 0.0 2.0 0.00 0.01 0.00 93 1013.0
20260508073039 44 0 0.0 2.0 0.00 0.01 0.00 93 1012.9
20260508072516 44 272 0.0 2.0 0.00 0.01 0.00 93 1012.8
20260508072016 44 0 0.0 0.0 0.00 0.01 0.00 93 1012.7
20260508071534 44 0 0.0 0.0 0.00 0.01 0.00 93 1012.7
20260508071016 44 0 0.0 0.0 0.00 0.01 0.00 93 1012.6
20260508070516 45 0 0.0 0.0 0.00 0.01 0.00 93 1012.5
20260508070045 45 0 0.0 0.0 0.00 0.01 0.00 92 1012.4
20260508065530 45 0 0.0 2.0 0.00 0.01 0.00 93 1012.4
20260508065018 45 0 0.0 2.0 0.00 0.01 0.00 92 1012.3
20260508064538 45 0 0.0 2.0 0.00 0.01 0.00 93 1012.2
20260508064019 45 0 0.0 2.0 0.00 0.01 0.00 93 1012.1
20260508063519 45 0 0.0 2.0 0.00 0.01 0.00 92 1012.0
20260508063039 46 0 0.0 2.0 0.00 0.01 0.00 92 1012.0
20260508062518 46 0 0.0 2.0 0.00 0.01 0.00 92 1012.0
20260508062018 46 0 0.0 2.0 0.00 0.01 0.00 93 1012.0
20260508061537 46 292 0.0 2.0 0.00 0.01 0.00 93 1012.0
20260508061018 46 0 0.0 2.0 0.00 0.01 0.00 93 1012.0
20260508060516 46 308 0.0 2.0 0.00 0.01 0.00 92 1012.0
20260508060034 46 0 0.0 2.0 0.00 0.01 0.00 92 1012.0
20260508055516 46 0 0.0 2.0 0.00 0.03 0.00 93 1012.0
20260508055016 46 0 0.0 2.0 0.00 0.03 0.00 92 1011.9
20260508054541 46 0 0.0 2.0 0.00 0.03 0.00 92 1012.0
20260508054015 46 0 0.0 2.0 0.00 0.03 0.00 92 1011.9
20260508053519 46 0 0.0 2.0 0.00 0.03 0.00 92 1011.8
20260508053033 46 0 0.0 0.0 0.00 0.03 0.00 92 1011.9
20260508052518 46 0 0.0 0.0 0.00 0.03 0.00 91 1011.8
20260508052018 46 0 0.0 0.0 0.00 0.03 0.00 91 1011.9
20260508051533 46 0 0.0 0.0 0.00 0.03 0.00 91 1011.8
20260508051021 47 0 0.0 2.0 0.00 0.03 0.00 91 1011.8
20260508050522 47 0 0.0 2.0 0.00 0.03 0.00 91 1011.7
20260508050031 47 313 0.0 2.0 0.00 0.03 0.00 91 1011.7
20260508045518 47 0 0.0 0.0 0.00 0.04 0.00 90 1011.6
20260508045018 47 0 0.0 0.0 0.00 0.04 0.00 90 1011.6
20260508044555 47 0 0.0 0.0 0.00 0.04 0.00 89 1011.6
20260508044017 47 0 0.0 1.0 0.00 0.04 0.00 89 1011.4
20260508043515 47 0 0.0 1.0 0.00 0.04 0.00 88 1011.5
20260508043045 48 0 0.0 0.0 0.00 0.04 0.00 88 1011.5
20260508042519 48 0 0.0 0.0 0.00 0.04 0.00 88 1011.4
20260508042018 48 0 0.0 0.0 0.00 0.04 0.00 88 1011.3
20260508041532 48 0 0.0 2.0 0.00 0.04 0.00 87 1011.4
20260508041019 48 0 0.0 2.0 0.00 0.04 0.00 87 1011.2
20260508040520 48 313 0.0 2.0 0.00 0.04 0.00 86 1011.2
20260508040038 48 0 0.0 2.0 0.00 0.04 0.00 86 1011.2
20260508035518 49 0 0.0 0.0 0.00 0.04 0.04 86 1011.1
20260508035018 49 0 0.0 2.0 0.00 0.04 0.04 85 1011.0
20260508034544 49 0 0.0 2.0 0.00 0.04 0.04 85 1011.2
20260508034017 49 0 0.0 2.0 0.00 0.04 0.04 84 1011.0
20260508033522 49 0 0.0 2.0 0.00 0.04 0.04 84 1011.1
20260508033033 49 242 0.0 2.0 0.00 0.04 0.04 84 1011.0
20260508032517 49 0 0.0 2.0 0.00 0.04 0.04 83 1011.1
20260508032015 50 0 0.0 2.0 0.00 0.04 0.04 83 1011.0
20260508031533 50 0 0.0 2.0 0.00 0.04 0.04 83 1011.1
20260508031016 50 0 0.0 2.0 0.00 0.04 0.04 82 1011.0
20260508030520 50 0 0.0 2.0 0.00 0.04 0.04 83 1011.1
20260508030044 50 241 0.0 2.0 0.00 0.04 0.04 82 1011.0
20260508025516 50 0 0.0 2.0 0.00 0.04 0.04 82 1011.0
20260508025018 50 227 0.0 2.0 0.00 0.04 0.04 82 1010.9
20260508024544 50 252 0.0 2.0 0.00 0.04 0.04 82 1011.0
20260508024019 50 256 0.0 2.0 0.00 0.04 0.04 81 1010.9
20260508023519 50 261 0.0 2.0 0.00 0.04 0.04 81 1010.9
20260508023039 50 231 0.0 2.0 0.00 0.04 0.04 81 1010.9
20260508022518 50 0 0.0 2.0 0.00 0.04 0.04 80 1011.0
20260508022058 50 224 0.0 2.0 0.00 0.04 0.04 80 1011.0
20260508021538 51 0 0.0 2.0 0.00 0.04 0.04 79 1011.0
20260508021018 51 0 0.0 2.0 0.00 0.04 0.04 79 1011.0
20260508020516 51 0 0.0 2.0 0.00 0.04 0.04 78 1010.9
20260508020046 51 0 0.0 2.0 0.00 0.04 0.04 78 1010.9
20260508015519 51 0 0.0 2.0 0.00 0.04 0.04 78 1010.9
20260508015016 51 229 0.0 2.0 0.00 0.04 0.04 78 1010.8
20260508014533 52 0 0.0 2.0 0.00 0.04 0.04 77 1010.8
20260508014019 52 0 0.0 2.0 0.00 0.04 0.04 77 1010.8
20260508013518 52 259 0.0 2.0 0.00 0.04 0.04 74 1010.7
20260508013036 52 220 0.0 2.0 0.00 0.04 0.04 74 1010.7
20260508012518 52 0 0.0 3.0 0.00 0.04 0.04 76 1010.7
20260508012018 52 242 0.0 3.0 0.00 0.04 0.04 76 1010.6
20260508011543 52 198 0.0 2.0 0.00 0.04 0.04 76 1010.5
20260508011019 53 0 0.0 2.0 0.00 0.04 0.04 75 1010.4
20260508010516 53 0 0.0 2.0 0.00 0.04 0.04 74 1010.2
20260508010035 53 0 0.0 2.0 0.00 0.04 0.04 73 1010.1
20260508005518 53 107 0.0 2.0 0.00 0.04 0.04 72 1010.0
20260508005016 53 0 0.0 2.0 0.00 0.04 0.04 71 1010.0
20260508004545 54 0 0.0 2.0 0.00 0.04 0.04 71 1009.9
20260508004018 54 221 0.0 2.0 0.00 0.04 0.04 71 1009.8
20260508003518 54 221 0.0 3.0 0.00 0.04 0.04 70 1009.7
20260508003039 54 210 0.0 3.0 0.00 0.04 0.04 69 1009.6
20260508002518 54 276 0.0 2.0 0.00 0.04 0.04 68 1009.6
20260508002018 55 323 0.0 2.0 0.00 0.04 0.04 67 1009.6
20260508001537 55 330 0.0 2.0 0.00 0.04 0.04 62 1009.5
20260508001018 55 278 0.0 4.0 0.00 0.04 0.04 63 1009.4
20260508000522 55 225 0.0 4.0 0.00 0.04 0.04 63 1009.3
20260508000037 55 171 1.0 2.0 0.00 0.04 0.04 65 1009.3
20260507235516 56 293 0.0 2.0 0.00 0.04 0.04 64 1009.3
20260507235016 56 302 0.0 2.0 0.00 0.04 0.04 64 1009.1
20260507234533 56 258 0.0 2.0 0.00 0.04 0.04 59 1009.1
20260507234017 56 37 0.0 2.0 0.00 0.04 0.04 58 1009.1
20260507233524 57 212 0.0 3.0 0.00 0.04 0.04 62 1009.0
20260507233035 57 209 1.0 3.0 0.00 0.04 0.04 59 1009.0
20260507232518 57 139 0.0 2.0 0.00 0.04 0.04 62 1008.9
20260507232018 57 250 1.0 2.0 0.00 0.04 0.04 61 1008.9
20260507231547 58 28 0.0 2.0 0.00 0.04 0.04 60 1008.9
20260507231023 58 22 0.0 2.0 0.00 0.04 0.04 60 1008.9
20260507230520 58 116 0.0 3.0 0.00 0.04 0.04 56 1008.8
20260507230041 58 111 0.0 3.0 0.00 0.04 0.04 57 1008.8
20260507225519 59 221 1.0 3.0 0.00 0.04 0.04 55 1008.7
20260507225018 59 348 1.0 3.0 0.00 0.04 0.04 57 1008.6
20260507224538 59 44 1.0 3.0 0.00 0.04 0.04 56 1008.6
20260507224019 59 350 1.0 4.0 0.00 0.04 0.04 54 1008.6
20260507223520 60 295 0.0 4.0 0.00 0.04 0.04 57 1008.5
20260507223034 60 329 0.0 3.0 0.00 0.04 0.04 54 1008.5
20260507222519 60 238 0.0 3.0 0.00 0.04 0.04 53 1008.5
20260507222023 60 0 0.0 4.0 0.00 0.04 0.04 56 1008.5
20260507221541 61 126 1.0 4.0 0.00 0.04 0.04 55 1008.4
20260507221019 61 160 1.0 4.0 0.00 0.04 0.04 55 1008.3
20260507220519 61 154 1.0 4.0 0.00 0.04 0.04 56 1008.4
20260507220032 61 210 2.0 4.0 0.00 0.04 0.04 55 1008.5
20260507215519 61 177 0.0 4.0 0.00 0.04 0.04 55 1008.4
20260507215019 61 258 0.0 5.0 0.00 0.04 0.04 55 1008.6